Weather History for KBML - December, 2004

Change the Weather History Date:

Monday, December 6, 2004

  Actual Average Record
Temperature  
Mean Temperature 8 °F -  
Max Temperature 18 °F 31 °F 64 °F (2001)
Min Temperature -2 °F 14 °F -2 °F (2002)
Degree Days  
Heating Degree Days 57    
Moisture  
Dew Point 0 °F    
Average Humidity 67    
Maximum Humidity 87    
Minimum Humidity 43    
Precipitation  
Precipitation 0.00 in - - ()
Sea Level Pressure  
Sea Level Pressure 30.44 in    
Wind  
Wind Speed 1 mph (NW)    
Max Wind Speed 6 mph    
Max Gust Speed -    
Visibility 10 miles    
Events Snow    
Averages and records for this station are not official NWS values.
T = Trace of Precipitation, MM = Missing Value Source: NWS Daily Summary

Daily Weather History Graph

Daily Weather History Graph

Search for Another Location

Airport or City:

Trip Planner

Search our weather history database for the weather conditions in past years. The results will help you decide how hot, cold, wet, or windy it might be!

Date:

Astronomy

Dec. 06, 2004 Rise Set
Actual Time 7:07 AM EST 4:04 PM EST
Civil Twilight 6:33 AM EST 4:37 PM EST
Nautical Twilight 5:57 AM EST 5:14 PM EST
Astronomical Twilight 5:22 AM EST 5:49 PM EST
Moon 12:28 AM EST (12/6) 1:02 PM EST (12/6)
Length of Visible Light 10h 03m
Length of Day
8h 57m
Waning Crescent, 33% of the Moon is Illuminated
Dec 6
Waning Crescent
Dec 11
New
Dec 18
First Quarter
Dec 26
Full
Jan 3
Last Quarter

Hourly Weather History & Observations

Time (EST) Temp. Windchill Dew Point Humidity Pressure Visibility Wind Dir Wind Speed Gust Speed Precip Events Conditions
12:52 AM 8.1 °F -2.0 °F -0.9 °F 67% 30.39 in 10.0 mi WNW 5.8 mph - N/A   Clear
1:52 AM 1.9 °F - -2.9 °F 80% 30.41 in 10.0 mi Calm Calm - N/A   Clear
2:52 AM -0.0 °F - -4.0 °F 83% 30.41 in 10.0 mi Calm Calm - N/A   Clear
3:52 AM -0.0 °F - -5.1 °F 79% 30.44 in 10.0 mi Calm Calm - N/A   Clear
4:52 AM -0.9 °F - -5.1 °F 83% 30.45 in 10.0 mi Calm Calm - N/A   Clear
5:52 AM -2.0 °F - -7.1 °F 79% 30.47 in 10.0 mi Calm Calm - N/A   Clear
6:52 AM -2.9 °F - -8.0 °F 79% 30.47 in 10.0 mi Calm Calm - N/A   Clear
7:52 AM -0.9 °F - -5.1 °F 83% 30.48 in 10.0 mi Calm Calm - N/A   Clear
8:52 AM 3.0 °F - -0.0 °F 87% 30.50 in 10.0 mi Calm Calm - N/A   Clear
9:52 AM 8.1 °F - 1.0 °F 73% 30.51 in 10.0 mi Calm Calm - N/A   Clear
10:52 AM 10.9 °F - 1.9 °F 67% 30.48 in 10.0 mi Calm Calm - N/A   Clear
11:52 AM 14.0 °F - 1.0 °F 56% 30.46 in 10.0 mi Calm Calm - N/A   Scattered Clouds
12:52 PM 15.1 °F - -4.0 °F 43% 30.44 in 10.0 mi Calm Calm - N/A   Mostly Cloudy
1:52 PM 16.0 °F - -0.9 °F 47% 30.43 in 10.0 mi Calm Calm - N/A   Overcast
3:52 PM 18.0 °F - -0.9 °F 44% 30.43 in 10.0 mi Calm Calm - N/A   Overcast
4:52 PM 18.0 °F - 1.9 °F 50% 30.43 in 10.0 mi Calm Calm - N/A   Overcast
6:52 PM 17.1 °F - 8.1 °F 68% 30.43 in 10.0 mi Calm Calm - N/A   Overcast
7:52 PM 18.0 °F - 6.1 °F 60% 30.43 in 10.0 mi Calm Calm - N/A   Overcast
8:52 PM 18.0 °F - 6.1 °F 60% 30.42 in 10.0 mi Calm Calm - N/A   Overcast
9:52 PM 18.0 °F - 7.0 °F 62% 30.42 in 8.0 mi Calm Calm - 0.00 in Snow Light Snow
10:52 PM 18.0 °F - 8.1 °F 65% 30.43 in 10.0 mi Calm Calm - 0.00 in   Overcast
11:52 PM 18.0 °F 11.1 °F 8.1 °F 65% 30.39 in 7.0 mi NNW 4.6 mph - 0.00 in Snow Light Snow